Date,TemperatureHighF,TemperatureAvgF,TemperatureLowF,DewpointHighF,DewpointAvgF,DewpointLowF,HumidityHigh,HumidityAvg,HumidityLow,PressureMaxIn,PressureMinIn,WindSpeedMaxMPH,WindSpeedAvgMPH,GustSpeedMaxMPH,PrecipitationSumIn
2014-1-1,49,37,28,32,25,20,74,62,46,30.38,30.11,0,0,0,0.00
2014-1-2,40,35,31,35,28,22,87,77,65,30.11,29.63,0,0,0,0.12
2014-1-3,32,23,18,21,8,6,65,53,41,30.46,29.76,0,0,0,0.00
2014-1-4,37,25,17,26,14,9,73,63,49,30.48,30.26,0,0,0,0.00
2014-1-5,38,34,30,35,29,20,92,81,66,30.27,29.71,0,0,0,0.10
2014-1-6,43,30,9,40,19,-6,94,66,44,30.17,29.58,0,0,0,0.04
2014-1-7,20,12,5,3,-4,-10,55,49,42,30.45,30.17,0,0,0,0.00
2014-1-8,41,26,13,20,12,3,71,57,39,30.58,30.43,0,0,0,0.00
2014-1-9,49,35,26,28,22,18,75,60,44,30.58,30.46,0,0,0,0.00
2014-1-10,39,37,35,36,32,22,91,81,54,30.49,30.12,0,0,0,0.43
2014-1-11,50,44,38,48,41,36,95,91,67,30.12,29.52,0,0,0,0.53
2014-1-12,52,45,36,37,32,29,76,62,48,30.13,29.69,0,0,0,0.00
2014-1-13,50,41,31,40,34,26,85,76,66,30.12,29.90,0,0,0,0.00
2014-1-14,52,45,35,45,39,30,92,80,58,29.96,29.75,0,0,0,0.10
2014-1-15,46,37,31,38,31,26,88,78,61,29.97,29.88,0,0,0,0.00
2014-1-16,40,33,28,26,21,18,69,61,48,30.05,29.89,0,0,0,0.00
2014-1-17,47,36,27,34,27,21,82,69,54,29.96,29.79,0,0,0,0.00
2014-1-18,34,28,24,26,16,10,71,59,51,30.02,29.88,0,0,0,0.00
2014-1-19,43,35,25,31,25,18,77,66,56,29.94,29.86,0,0,0,0.00
2014-1-20,57,45,37,33,28,25,66,51,35,29.85,29.73,0,0,0,0.00
2014-1-21,38,34,23,33,27,13,85,74,61,29.89,29.61,0,0,0,0.00
2014-1-22,24,20,15,13,6,1,67,55,44,30.07,29.88,0,0,0,0.00
2014-1-23,26,22,12,13,7,-1,63,54,42,30.49,30.06,0,0,0,0.00
2014-1-24,26,16,9,5,1,-4,59,51,38,30.58,30.10,0,0,0,0.00
2014-1-25,34,26,16,23,14,5,71,60,52,30.10,29.57,0,0,0,0.00
2014-1-26,45,32,23,18,12,6,53,42,33,29.91,29.74,0,0,0,0.00
2014-1-27,37,29,23,21,6,0,52,37,33,30.18,29.94,0,0,0,0.00
2014-1-28,23,19,16,12,4,-3,73,53,36,30.37,30.18,0,0,0,0.00
2014-1-29,26,19,12,12,4,-3,74,52,37,30.35,30.17,0,0,0,0.02
2014-1-30,33,22,11,13,7,1,65,53,41,30.43,30.21,0,0,0,0.00
2014-1-31,52,34,21,20,16,10,69,50,27,30.21,30.09,0,0,0,0.00
2014-2-1,57,41,28,30,24,20,72,53,32,30.27,30.05,0,0,0,0.00
2014-2-2,63,49,34,50,38,23,78,66,54,30.06,29.97,0,0,0,0.00
2014-2-3,52,45,38,45,41,34,92,85,78,30.28,29.88,0,0,0,1.84
2014-2-4,39,37,34,35,32,31,88,84,80,30.42,30.12,0,0,0,0.18
2014-2-5,55,39,34,47,33,24,94,80,59,30.14,29.73,0,0,0,0.04
2014-2-6,40,34,30,25,22,19,66,60,54,30.34,30.15,0,0,0,0.00
2014-2-7,42,34,29,26,24,21,74,65,54,30.36,30.26,0,0,0,0.00
2014-2-8,40,36,32,29,27,24,76,70,63,30.31,30.13,0,0,1,0.00
2014-2-9,47,41,37,37,32,29,75,71,66,30.17,29.96,0,0,0,0.00
2014-2-10,39,36,30,30,23,16,68,59,47,30.28,30.04,0,0,0,0.00
2014-2-11,38,31,26,21,18,16,68,59,46,30.40,30.26,0,0,0,0.00
2014-2-12,29,26,24,19,16,13,82,66,57,30.45,30.00,0,0,0,0.00
2014-2-13,38,30,24,34,25,19,91,82,66,29.99,29.48,0,0,0,0.23
2014-2-14,46,40,35,30,27,23,78,60,46,29.72,29.59,0,0,0,0.08
2014-2-15,37,33,26,34,24,16,89,70,57,30.07,29.58,0,0,0,0.06
2014-2-16,44,34,26,31,23,16,72,66,59,30.19,29.98,0,0,0,0.00
2014-2-17,40,33,25,27,23,18,76,67,58,30.39,30.17,0,0,0,0.00
2014-2-18,55,42,30,29,27,23,80,58,32,30.18,30.06,0,0,0,0.00
2014-2-19,64,47,35,49,36,28,87,68,49,30.11,29.83,0,0,0,0.10
2014-2-20,49,43,38,36,33,31,78,68,60,30.25,29.95,0,0,0,0.00
2014-2-21,56,47,38,50,35,26,94,66,32,30.04,29.73,0,0,0,0.00
2014-2-22,61,48,40,30,27,24,61,45,25,30.16,30.04,0,0,0,0.00
2014-2-23,66,49,34,37,31,26,76,53,29,30.07,29.86,0,0,0,0.00
2014-2-24,50,44,37,34,20,12,63,41,25,30.15,29.96,0,0,0,0.00
2014-2-25,39,35,33,22,18,15,55,50,41,30.12,29.98,0,0,0,0.00
2014-2-26,39,35,29,22,18,13,60,50,38,29.98,29.83,0,0,0,0.00
2014-2-27,44,33,26,14,10,3,58,39,24,30.04,29.74,0,0,0,0.00
2014-2-28,39,31,23,18,13,8,56,47,41,30.32,30.04,0,0,0,0.00
2014-3-1,50,37,27,28,20,12,60,50,41,30.35,30.18,0,0,0,0.00
2014-3-2,64,50,34,51,40,24,89,69,53,30.22,29.85,0,0,0,0.00
2014-3-3,53,34,22,50,31,18,90,87,83,30.29,29.78,0,0,0,0.00
2014-3-4,31,25,19,23,19,14,83,78,68,30.36,30.18,0,0,0,0.00
2014-3-5,50,36,26,35,27,22,84,72,55,30.29,30.09,0,0,0,0.00
2014-3-6,41,35,31,26,23,19,73,61,53,30.42,30.22,0,0,0,0.00
2014-3-7,41,34,31,36,30,25,87,84,74,30.22,29.93,0,0,0,0.00
2014-3-8,64,47,31,45,34,28,92,65,34,30.02,29.91,0,0,0,0.02
2014-3-9,58,52,45,39,35,30,63,53,36,30.09,29.93,0,0,0,0.00
2014-3-10,69,56,44,41,32,26,57,42,26,29.99,29.74,0,0,0,0.00
2014-3-11,76,62,53,44,40,35,59,45,24,29.79,29.63,0,0,0,0.00
2014-3-12,71,53,37,57,40,22,76,61,51,29.66,29.17,0,0,0,0.00
2014-3-13,38,33,27,22,12,7,61,42,28,30.21,29.65,0,0,0,0.00
2014-3-14,64,45,30,29,21,13,57,40,26,30.24,29.99,0,0,0,0.00
2014-3-15,67,57,48,37,31,24,48,38,26,30.06,29.90,0,0,0,0.00
2014-3-16,49,42,35,33,31,28,84,64,47,30.09,29.94,0,0,0,0.00
2014-3-17,35,32,30,30,28,26,87,85,84,30.04,29.90,0,0,0,0.00
2014-3-18,40,35,31,36,31,28,89,87,84,30.20,30.00,0,0,0,0.00
2014-3-19,48,40,36,44,37,33,92,89,86,30.20,29.90,0,0,0,0.00
2014-3-20,59,50,39,42,32,24,92,55,29,30.05,29.89,0,0,0,0.00
2014-3-21,68,54,42,37,30,26,59,42,22,30.11,29.96,0,0,0,0.00
2014-3-22,68,58,48,43,37,31,60,46,37,30.00,29.91,0,0,0,0.00
2014-3-23,52,46,38,38,32,19,77,60,43,30.15,29.96,0,0,0,0.00
2014-3-24,49,39,30,21,17,14,52,41,28,30.26,30.02,0,0,0,0.00
2014-3-25,40,36,32,32,25,17,81,66,40,30.05,29.78,0,0,0,0.00
2014-3-26,40,33,28,24,14,10,71,46,33,30.30,29.95,0,0,0,0.00
2014-3-27,56,41,28,30,23,15,68,50,34,30.40,30.18,0,0,0,0.00
2014-3-28,63,55,47,52,44,26,79,68,41,30.18,30.04,0,0,0,0.14
2014-3-29,59,55,46,57,52,42,94,89,78,30.09,29.57,0,0,0,4.08
2014-3-30,49,43,38,42,32,27,86,65,47,30.00,29.67,0,0,0,0.02
2014-3-31,70,54,43,37,29,22,56,39,25,30.14,29.98,0,0,0,0.00
2014-4-1,79,59,41,47,39,34,76,51,23,30.16,29.93,0,0,0,0.00
2014-4-2,83,66,50,51,44,40,71,48,27,30.07,29.95,0,0,0,0.00
2014-4-3,73,64,54,54,49,43,71,59,49,30.09,29.86,0,0,0,0.02
2014-4-4,70,63,57,62,57,54,93,81,57,29.91,29.67,0,0,0,0.06
2014-4-5,62,55,48,55,36,31,78,50,35,30.12,29.78,0,0,0,0.00
2014-4-6,63,50,38,40,34,30,75,55,41,30.21,30.07,0,0,0,0.00
2014-4-7,55,48,45,47,44,36,95,88,49,30.09,29.61,0,0,0,0.94
2014-4-8,63,54,48,50,43,39,96,68,45,29.74,29.54,0,0,0,0.00
2014-4-9,63,54,44,42,39,35,79,59,37,30.08,29.71,0,0,0,0.00
2014-4-10,74,57,40,43,38,34,79,53,29,30.23,30.05,0,0,0,0.00
2014-4-11,79,64,51,52,44,39,70,50,30,30.12,29.96,0,0,0,0.00
2014-4-12,80,64,52,57,51,46,78,63,44,30.22,30.07,0,0,0,0.00
2014-4-13,83,68,53,60,54,47,81,62,42,30.13,30.00,0,0,0,0.00
2014-4-14,72,68,64,59,57,54,84,69,62,30.00,29.78,0,0,0,0.00
2014-4-15,64,52,36,63,47,24,96,83,60,30.05,29.59,0,0,0,0.61
2014-4-16,55,42,32,34,27,21,68,56,42,30.44,30.04,0,0,0,0.00
2014-4-17,60,47,34,39,32,27,75,57,41,30.56,30.40,0,0,0,0.00
2014-4-18,55,48,43,44,39,33,78,71,64,30.45,30.25,0,0,0,0.00
2014-4-19,64,55,48,48,45,42,84,69,53,30.25,30.18,0,0,0,0.00
2014-4-20,71,58,46,45,41,37,84,57,31,30.33,30.20,0,0,0,0.00